Location: Colebrook
(42.0017°N, 73.0973°W)
Time: 16:32:28
(UTC-05:00)

Vanguard 2 - Pass Details

Date: 30 October 2021
Orbit: 554 x 2936 km, 32.9° (Epoch: 04 December)

Event Time Altitude Azimuth Distance (km) Brightness Sun altitude
Rises 23:02:18 0° 224° (SW) 6,741 12.3 -55.6°
Reaches altitude 10° 23:07:12 10° 218° (SW) 5,759 11.8 -56.2°
Enters shadow 23:07:26 11° 218° (SW) 5,712 11.8 -56.2°
